星链-31660 (STARLINK-31660 )

导读

STARLINK-31660是美国SpaceX公司于2024年5月3日发射的星链第二代卫星,隶属于全球低轨卫星互联网星座。该卫星运行在近地轨道,配备高性能相控阵天线与激光星间链路,可提供高速低延迟宽带服务,助力拓展星链全球覆盖,服务偏远地区接入、移动互联及应急通信等场景,是SpaceX加速第二代星链部署的组成部分。

基本信息
目录编号:
59642
目录名称:
STARLINK-31660
国际标识:
2024-082M
轨道中心:
EARTH
卫星名称:
星链-31660
卫星全名:
星链-31660 (STARLINK-31660 )
卫星状态:
在轨 (已飞行854 天)
发射日期:
2024-05-03 UTC
国别 :
美国 (US)
星等 :
--
轨道信息
数据来源 国际轨道数据 AOE轨道数据
星历时间 2026-09-04T11:38:59+0800
5小时前
查看轨道信息
2026-09-04T00:00:00+0800
16小时前
查看轨道信息
半长轴 6861.19km 6861.187km
偏心率 0.0000708 0.0000305
轨道倾角 42.999° 43.000°
近地点辐角 239.841° 81.790°
升交点赤经 171.571° 174.316°
平近点角 120.237° 125.751°
近地点 482.567km 482.84km
远地点 483.539km 483.26km
周期 94.267分钟 94.267分钟
每日圈数 15.27579 15.275797
详细信息
固有亮度:
5
最大亮度:
1.5
卫星平台:
Starlink v2.0 mini
覆盖范围:
全球
运营商:
太空探索技术公司
运营商所在国:
美国
制造商(研发单位):
太空探索技术公司
制造商所在国:
美国
使用方式:
暂无
卫星简介
星链(Starlink)计划是由太空探索技术公司(SpaceX)提出的一个巨型低轨卫星互联网星座项目,计划在2019年至2024年间在太空搭建由约1.2万颗卫星组成的“星链”网络,其中1584颗将部署在地球上空550千米处的近地轨道,并从2020年开始工作。该卫星仍在工作。
2D轨道图
3D轨道图
轨道高度分析图
轨道倾角分析图
轨道综合分析图
查看轨道综合分析图
交会数据列表
事件ID 空间交会对象 最接近时刻(TCA) 交会距离 交会风险概率(CRP) 交会风险指数(CRI) 操作
CDM_260905-001605-964206-363621
2026-09-05T
00:16:35+0000
0.411 km
远距离
2.145945E-4 高风险 0.82
CDM_260830-201805-964206-363622
2026-08-30T
20:18:13+0000
0.865 km
远距离
2.779555E-5 中风险 0.64
CDM_260906-062601-957305-964221
2026-09-06T
06:26:28+0000
1.066 km
极远距离
1.959604E-5 中风险 0.61
CDM_260905-011905-964206-214521
2026-09-05T
01:19:28+0000
1.042 km
极远距离
1.113941E-5 中风险 0.56
CDM_260905-133605-964206-363621
2026-09-05T
13:36:54+0000
1.132 km
极远距离
1.101645E-5 中风险 0.56
CDM_260903-080905-964206-402421
2026-09-03T
08:09:43+0000
1.462 km
极远距离
6.443587E-6 低风险 0.51
CDM_260904-234505-964206-214521
2026-09-04T
23:45:19+0000
1.278 km
极远距离
5.544467E-6 低风险 0.5
CDM_260830-184405-964206-363624
2026-08-30T
18:44:04+0000
1.559 km
极远距离
3.79221E-6 低风险 0.47
CDM_260904-224205-964206-363621
2026-09-04T
22:42:26+0000
1.589 km
极远距离
3.575393E-6 低风险 0.46
CDM_260905-120205-964206-363621
2026-09-05T
12:02:45+0000
1.707 km
极远距离
2.884112E-6 低风险 0.44